TimeEST,TemperatureF,Dew PointF,Humidity,Sea Level PressureIn,VisibilityMPH,Wind Direction,Wind SpeedMPH,Gust SpeedMPH,PrecipitationIn,Events,Conditions,WindDirDegrees,DateUTC
12:15 AM,53.8,51.8,93,29.85,4.0,SW,6.9,-,N/A,Rain,Heavy Rain,220,2012-12-02 05:15:00
12:35 AM,54.5,51.8,91,29.85,5.0,SW,10.4,-,N/A,Rain,Light Rain,220,2012-12-02 05:35:00
12:54 AM,54.5,51.4,89,29.85,7.0,SW,11.5,18.4,N/A,Rain,Rain,230,2012-12-02 05:54:00
1:15 AM,54.5,51.4,89,29.85,7.0,SW,10.4,18.4,N/A,,Overcast,230,2012-12-02 06:15:00
1:35 AM,54.5,51.1,88,29.84,7.0,SSW,17.3,24.2,N/A,Rain,Rain,210,2012-12-02 06:35:00
1:54 AM,54.3,51.1,89,29.84,7.0,SW,12.7,21.9,N/A,Rain,Rain,220,2012-12-02 06:54:00
2:15 AM,54.5,51.1,88,29.84,7.0,SW,13.8,24.2,N/A,,Overcast,230,2012-12-02 07:15:00
2:35 AM,54.5,50.9,88,29.84,7.0,SW,10.4,21.9,N/A,,Overcast,230,2012-12-02 07:35:00
2:54 AM,54.1,50.9,89,29.84,7.0,SW,8.1,16.1,N/A,,Overcast,220,2012-12-02 07:54:00
3:15 AM,54.3,50.9,88,29.84,7.0,SW,8.1,-,N/A,,Overcast,220,2012-12-02 08:15:00
3:34 AM,54.1,50.7,88,29.84,5.0,SW,8.1,-,N/A,Rain,Light Rain,220,2012-12-02 08:34:00
3:54 AM,53.8,50.9,90,29.84,4.0,SW,9.2,-,N/A,,Drizzle,220,2012-12-02 08:54:00
4:15 AM,53.6,50.9,91,29.84,5.0,SW,8.1,-,N/A,,Drizzle,220,2012-12-02 09:15:00
4:34 AM,53.2,50.5,91,29.83,7.0,SSW,9.2,-,N/A,,Light Drizzle,210,2012-12-02 09:34:00
4:54 AM,53.6,50.5,89,29.83,7.0,SW,6.9,-,N/A,,Overcast,220,2012-12-02 09:54:00
5:15 AM,53.4,50.5,90,29.83,5.0,SW,5.8,-,N/A,Rain,Light Rain,220,2012-12-02 10:15:00
5:34 AM,52.9,50.5,92,29.83,5.0,SSW,5.8,-,N/A,Rain,Light Rain,210,2012-12-02 10:34:00
5:54 AM,52.9,50.4,91,29.83,7.0,SSW,5.8,-,N/A,Rain,Light Rain,210,2012-12-02 10:54:00
6:15 AM,53.1,50.5,91,29.83,7.0,SSW,6.9,-,N/A,,Overcast,210,2012-12-02 11:15:00
6:34 AM,52.9,50.9,93,29.83,3.0,SW,4.6,-,N/A,,Overcast,230,2012-12-02 11:34:00
6:54 AM,53.1,51.1,93,29.83,3.0,SW,4.6,-,N/A,,Overcast,220,2012-12-02 11:54:00
7:15 AM,53.1,51.3,94,29.84,4.0,SW,5.8,-,N/A,,Overcast,220,2012-12-02 12:15:00
7:34 AM,53.1,51.3,94,29.84,2.5,WSW,4.6,-,N/A,,Overcast,250,2012-12-02 12:34:00
7:54 AM,53.1,51.3,94,29.84,4.0,Calm,Calm,-,N/A,,Overcast,0,2012-12-02 12:54:00
8:15 AM,52.9,51.3,94,29.84,1.8,Calm,Calm,-,N/A,,Overcast,0,2012-12-02 13:15:00
8:34 AM,52.7,51.1,94,29.86,2.5,West,5.8,-,N/A,,Overcast,270,2012-12-02 13:34:00
8:55 AM,52.9,51.1,94,29.86,2.0,West,5.8,-,N/A,,Overcast,280,2012-12-02 13:55:00
9:15 AM,52.3,50.9,95,29.87,2.0,WNW,8.1,-,N/A,,Overcast,290,2012-12-02 14:15:00
9:34 AM,52.0,50.2,94,29.88,3.0,WNW,9.2,-,N/A,,Overcast,300,2012-12-02 14:34:00
9:55 AM,51.4,49.5,93,29.89,3.0,WNW,9.2,-,N/A,,Overcast,300,2012-12-02 14:55:00
10:14 AM,51.4,49.1,92,29.89,2.5,WNW,5.8,-,N/A,,Overcast,290,2012-12-02 15:14:00
10:34 AM,51.8,48.9,90,29.89,3.0,WNW,6.9,-,N/A,,Overcast,290,2012-12-02 15:34:00
10:55 AM,51.8,49.1,90,29.91,3.0,WNW,9.2,-,N/A,,Overcast,300,2012-12-02 15:55:00
11:15 AM,52.3,48.9,88,29.91,3.0,WNW,10.4,-,N/A,,Overcast,290,2012-12-02 16:15:00
11:34 AM,52.2,48.2,86,29.91,4.0,WNW,11.5,-,N/A,,Overcast,300,2012-12-02 16:34:00
11:54 AM,51.8,47.3,85,29.91,4.0,WNW,11.5,-,N/A,,Haze,290,2012-12-02 16:54:00
12:14 PM,51.1,46.0,83,29.92,5.0,WNW,10.4,-,N/A,,Haze,300,2012-12-02 17:14:00
12:34 PM,51.4,45.1,79,29.92,7.0,WNW,9.2,-,N/A,,Overcast,290,2012-12-02 17:34:00
12:55 PM,50.9,45.9,83,29.92,5.0,NW,8.1,-,N/A,,Haze,310,2012-12-02 17:55:00
1:14 PM,50.4,45.1,82,29.92,5.0,WNW,10.4,-,N/A,,Haze,300,2012-12-02 18:14:00
1:34 PM,50.0,44.4,81,29.93,5.0,NW,12.7,-,N/A,,Haze,320,2012-12-02 18:34:00
1:55 PM,49.1,43.9,82,29.93,5.0,NW,11.5,-,N/A,,Haze,310,2012-12-02 18:55:00
2:14 PM,48.7,43.0,80,29.93,7.0,NW,10.4,-,N/A,,Overcast,310,2012-12-02 19:14:00
2:34 PM,48.6,42.6,80,29.94,7.0,WNW,12.7,16.1,N/A,,Overcast,300,2012-12-02 19:34:00
2:55 PM,48.4,42.6,80,29.95,7.0,WNW,11.5,-,N/A,,Overcast,300,2012-12-02 19:55:00
3:14 PM,48.2,42.4,80,29.96,5.0,NW,10.4,-,N/A,,Haze,310,2012-12-02 20:14:00
3:34 PM,48.2,42.6,81,29.96,7.0,WNW,9.2,-,N/A,,Overcast,300,2012-12-02 20:34:00
3:55 PM,47.3,41.2,79,29.97,7.0,WNW,10.4,-,N/A,,Overcast,300,2012-12-02 20:55:00
4:14 PM,47.3,41.4,80,29.98,7.0,NW,6.9,-,N/A,,Overcast,310,2012-12-02 21:14:00
4:34 PM,46.9,40.8,79,29.98,7.0,NNW,5.8,-,N/A,,Overcast,330,2012-12-02 21:34:00
4:55 PM,46.4,40.6,80,30.00,7.0,NNW,6.9,-,N/A,,Overcast,340,2012-12-02 21:55:00
5:14 PM,46.4,40.5,80,30.00,7.0,NW,5.8,-,N/A,,Overcast,310,2012-12-02 22:14:00
5:35 PM,45.9,40.6,82,30.01,10.0,NNW,4.6,-,N/A,,Overcast,340,2012-12-02 22:35:00
5:55 PM,45.5,40.1,81,30.02,10.0,West,3.5,-,N/A,,Overcast,280,2012-12-02 22:55:00
6:14 PM,45.5,40.5,83,30.04,10.0,NW,4.6,-,N/A,,Overcast,320,2012-12-02 23:14:00
6:35 PM,45.5,39.6,80,30.04,10.0,NW,5.8,-,N/A,,Overcast,320,2012-12-02 23:35:00
6:55 PM,45.1,39.7,81,30.04,10.0,NW,3.5,-,N/A,,Overcast,320,2012-12-02 23:55:00
7:14 PM,45.1,39.6,81,30.05,10.0,Calm,Calm,-,N/A,,Overcast,0,2012-12-03 00:14:00
7:35 PM,44.8,40.1,84,30.06,10.0,Calm,Calm,-,N/A,,Overcast,0,2012-12-03 00:35:00
7:55 PM,45.0,39.4,81,30.07,10.0,Calm,Calm,-,N/A,,Overcast,0,2012-12-03 00:55:00
8:14 PM,44.8,39.9,83,30.07,10.0,Calm,Calm,-,N/A,,Overcast,0,2012-12-03 01:14:00
8:35 PM,44.4,39.6,83,30.08,10.0,Calm,Calm,-,N/A,,Overcast,0,2012-12-03 01:35:00
8:54 PM,44.2,39.6,84,30.07,10.0,Calm,Calm,-,N/A,,Overcast,0,2012-12-03 01:54:00
9:14 PM,44.6,39.0,81,30.07,10.0,Calm,Calm,-,N/A,,Overcast,0,2012-12-03 02:14:00
9:35 PM,43.9,39.6,85,30.08,10.0,Calm,Calm,-,N/A,,Overcast,0,2012-12-03 02:35:00
9:54 PM,44.1,39.0,82,30.08,10.0,Calm,Calm,-,N/A,,Overcast,0,2012-12-03 02:54:00
10:14 PM,43.3,38.8,84,30.07,10.0,Calm,Calm,-,N/A,,Overcast,0,2012-12-03 03:14:00
10:35 PM,41.4,38.7,90,30.07,7.0,Calm,Calm,-,N/A,,Overcast,0,2012-12-03 03:35:00
10:54 PM,39.0,37.2,93,30.07,5.0,Calm,Calm,-,N/A,,Mostly Cloudy,0,2012-12-03 03:54:00
11:14 PM,38.5,36.7,93,30.07,4.0,Calm,Calm,-,N/A,,Scattered Clouds,0,2012-12-03 04:14:00
11:35 PM,36.5,35.1,95,30.07,3.0,Calm,Calm,-,N/A,,Scattered Clouds,0,2012-12-03 04:35:00
11:54 PM,37.4,36.5,97,30.07,3.0,Calm,Calm,-,N/A,,Overcast,0,2012-12-03 04:54:00